"2009-12-29 00:00:00",1543964,8.6,177,2.368,0.744,4.272,99.55827,-1.826,-0.519,26.45,0,109.5,13.6,-1.08,139.0
"2009-12-29 00:00:30",1543965,8.68,175.6,2.585,0.638,4.046,99.55827,-1.826,-0.521,24.5,0,109.4,13.59,-1.08,137.6
"2009-12-29 00:01:00",1543966,8.58,174,3.396,0.732,4.26,99.55856,-1.825,-0.503,23.26,0,109.4,13.59,-1.08,136.0
"2009-12-29 00:01:30",1543967,8.48,173.5,3.472,0.81,4.262,99.55911,-1.823,-0.52,21.99,0,109.4,13.6,-1.08,135.5
"2009-12-29 00:02:00",1543968,8.46,174.3,1.975,0.8,4.296,99.55968,-1.822,-0.543,21.38,0,109.5,13.6,-1.08,136.3
"2009-12-29 00:02:30",1543969,8.64,173.9,3.874,0.507,4.127,99.5577,-1.827,-0.55,21.2,0,109.4,13.6,-1.08,135.9
"2009-12-29 00:03:00",1543970,8.51,174.9,3.417,0.655,3.926,99.55713,-1.828,-0.537,21.44,0,109.4,13.6,-1.08,136.9
"2009-12-29 00:03:30",1543971,8.51,174.8,3.262,0.736,3.98,99.55598,-1.831,-0.553,21.43,0,109.4,13.6,-1.09,136.8
"2009-12-29 00:04:00",1543972,8.52,176,1.753,0.814,3.963,99.56106,-1.818,-0.538,21.39,0,109.4,13.6,-1.07,138.0
"2009-12-29 00:04:30",1543973,8.52,177.1,3.427,0.617,4.081,99.56021,-1.821,-0.54,23.06,0,109.5,13.6,-1.07,139.1
"2009-12-29 00:05:00",1543974,8.38,177.7,3.305,0.729,4.081,99.5667,-1.804,-0.515,24.9,0,109.4,13.6,-1.06,139.7
"2009-12-29 00:05:30",1543975,8.31,177.8,3.34,0.725,3.882,99.57009,-1.795,-0.531,26.17,0,109.4,13.6,-1.05,139.8
"2009-12-29 00:06:00",1543976,8.31,177.7,2.813,0.813,3.767,99.57178,-1.791,-0.539,28.36,0,109.4,13.61,-1.05,139.7
"2009-12-29 00:06:30",1543977,8.27,178.7,2.628,0.72,3.495,99.56583,-1.806,-0.528,29.97,0,109.4,13.61,-1.06,140.7
"2009-12-29 00:07:00",1543978,8.29,178.1,2.855,0.821,3.662,99.55733,-1.828,-0.524,30.98,0,109.4,13.61,-1.08,140.1
"2009-12-29 00:07:30",1543979,8.27,179.2,2.753,0.724,3.799,99.5593,-1.823,-0.535,32.09,0,109.4,13.61,-1.08,141.2
"2009-12-29 00:08:00",1543980,8.2,179.5,3.452,0.733,3.969,99.55138,-1.843,-0.535,32.59,0,109.4,13.61,-1.10,141.5
"2009-12-29 00:08:30",1543981,8.26,179.5,1.648,0.717,3.669,99.55022,-1.846,-0.548,31.91,0,109.4,13.61,-1.10,141.5
"2009-12-29 00:09:00",1543982,8.03,180.1,3.333,0.722,3.829,99.5491,-1.849,-0.543,31.86,0,109.4,13.61,-1.10,142.1
"2009-12-29 00:09:30",1543983,7.931,180.8,2.516,0.734,3.703,99.55022,-1.846,-0.564,32.18,0,109.4,13.61,-1.10,142.8
"2009-12-29 00:10:00",1543984,7.86,182.1,3.304,0.651,3.804,99.54824,-1.851,-0.553,31.94,0,109.4,13.61,-1.11,144.1
"2009-12-29 00:10:30",1543985,7.858,182.3,3.749,0.738,3.781,99.53521,-1.884,-0.573,32.09,0,109.4,13.61,-1.14,144.3
"2009-12-29 00:11:00",1543986,7.752,183.4,4.332,0.942,3.182,99.5219,-1.918,-0.613,33.15,0,109.4,13.61,-1.17,145.4
"2009-12-29 00:11:30",1543987,7.51,180.7,5.394,0.987,2.675,99.51765,-1.929,-0.674,33.01,0,109.4,13.61,-1.18,142.7
"2009-12-29 00:12:00",1543988,7.097,178,5.895,1.099,1.968,99.52103,-1.92,-0.709,32.98,0,109.4,13.61,-1.18,140.0
"2009-12-29 00:12:30",1543989,7.447,181.4,5.022,1.096,3.233,99.52215,-1.918,-0.646,35.78,0,109.4,13.62,-1.17,143.4
"2009-12-29 00:13:00",1543990,7.934,182.8,4.423,0.918,3.979,99.52244,-1.917,-0.613,37.3,0,109.4,13.62,-1.17,144.8
"2009-12-29 00:13:30",1543991,8.33,184.5,3.166,0.618,4.577,99.5162,-1.933,-0.619,38.28,0,109.4,13.62,-1.19,146.5
"2009-12-29 00:14:00",1543992,8.37,184.6,3.298,0.614,4.643,99.50289,-1.967,-0.635,38.75,0,109.4,13.62,-1.22,146.6
"2009-12-29 00:14:30",1543993,8.57,184.9,3.486,0.632,4.279,99.49155,-1.996,-0.631,39.06,0,109.4,13.61,-1.25,146.9
"2009-12-29 00:15:00",1543994,8.71,185.3,3.452,0.751,4.219,99.49014,-1.999,-0.647,39.23,0,109.4,13.62,-1.25,147.3
"2009-12-29 00:15:30",1543995,8.72,185.2,3.279,0.761,4.042,99.49014,-1.999,-0.667,39.01,0,109.4,13.61,-1.25,147.2
"2009-12-29 00:16:00",1543996,8.78,185.8,2.726,0.721,4.037,99.49014,-1.999,-0.684,38.94,0,109.4,13.61,-1.25,147.8
"2009-12-29 00:16:30",1543997,8.89,187,2.524,0.628,3.762,99.49014,-1.999,-0.69,39.18,0,109.4,13.61,-1.25,149.0
"2009-12-29 00:17:00",1543998,8.87,186.5,3.333,0.744,3.668,99.4873,-2.006,-0.694,39.49,0,109.4,13.61,-1.26,148.5
"2009-12-29 00:17:30",1543999,8.79,186.5,3.373,0.798,3.721,99.47852,-2.029,-0.72,39.55,0,109.4,13.61,-1.28,148.5
"2009-12-29 00:18:00",1544000,8.84,188.1,1.672,0.738,3.575,99.47257,-2.044,-0.734,39.81,0,109.4,13.61,-1.30,150.1
"2009-12-29 00:18:30",1544001,8.84,187.2,3.249,0.509,3.464,99.46889,-2.053,-0.727,40.2,0,109.4,13.61,-1.31,149.2
"2009-12-29 00:19:00",1544002,8.69,186.9,3.384,0.668,3.465,99.4621,-2.071,-0.719,40.14,0,109.4,13.62,-1.33,148.9
"2009-12-29 00:19:30",1544003,8.63,186.8,3.174,0.737,3.441,99.45757,-2.082,-0.728,40.31,0,109.4,13.62,-1.34,148.8
"2009-12-29 00:20:00",1544004,8.55,187.1,1.657,0.81,3.496,99.45615,-2.086,-0.755,40.46,0,109.4,13.62,-1.34,149.1
"2009-12-29 00:20:30",1544005,8.56,185.9,3.313,0.703,3.528,99.45615,-2.086,-0.745,40.39,0,109.4,13.62,-1.34,147.9
"2009-12-29 00:21:00",1544006,8.47,185.5,3.426,0.72,3.569,99.45615,-2.086,-0.738,40.24,0,109.4,13.62,-1.34,147.5
"2009-12-29 00:21:30",1544007,8.39,183,3.434,0.64,3.647,99.45615,-2.086,-0.763,39.66,0,109.4,13.62,-1.34,145.0
"2009-12-29 00:22:00",1544008,8.29,183.6,1.65,0.802,3.862,99.45615,-2.086,-0.782,39.13,0,109.4,13.62,-1.34,145.6
"2009-12-29 00:22:30",1544009,8.44,184,3.651,0.62,3.767,99.45615,-2.086,-0.769,39.09,0,109.4,13.62,-1.34,146.0
"2009-12-29 00:23:00",1544010,8.29,184.7,3.52,0.682,3.608,99.45615,-2.086,-0.776,39.43,0,109.4,13.62,-1.34,146.7
"2009-12-29 00:23:30",1544011,8.24,185,2.837,0.827,3.629,99.45615,-2.086,-0.791,39.89,0,109.4,13.62,-1.34,147.0
"2009-12-29 00:24:00",1544012,8.25,185.5,2.793,0.81,3.76,99.45615,-2.086,-0.79,39.96,0,109.4,13.62,-1.34,147.5
"2009-12-29 00:24:30",1544013,8.49,186.9,2.856,0.659,3.351,99.45615,-2.086,-0.781,40.09,0,109.4,13.62,-1.34,148.9
"2009-12-29 00:25:00",1544014,8.53,186.6,3.439,0.63,3.471,99.45615,-2.086,-0.798,40.1,0,109.4,13.62,-1.34,148.6
"2009-12-29 00:25:30",1544015,8.33,185.8,3.302,0.768,3.398,99.4553,-2.088,-0.796,40.27,0,109.4,13.62,-1.34,147.8
"2009-12-29 00:26:00",1544016,8.42,182.6,3.344,0.717,3.673,99.45275,-2.094,-0.81,39.06,0,109.4,13.62,-1.35,144.6
"2009-12-29 00:26:30",1544017,8.52,180.9,3.243,0.478,3.656,99.44907,-2.104,-0.793,37.87,0,109.4,13.62,-1.36,142.9
"2009-12-29 00:27:00",1544018,8.42,181,2.544,0.755,3.813,99.44765,-2.107,-0.789,34.9,0,109.4,13.63,-1.36,143.0
"2009-12-29 00:27:30",1544019,8.4,179.8,3.27,0.746,3.896,99.4502,-2.101,-0.814,35.8,0,109.4,13.63,-1.36,141.8
"2009-12-29 00:28:00",1544020,8.41,179.8,3.385,0.717,3.952,99.45501,-2.089,-0.824,34.75,0,109.4,13.63,-1.34,141.8
"2009-12-29 00:28:30",1544021,8.56,179.9,3.708,0.352,3.959,99.45643,-2.085,-0.816,35.17,0,109.4,13.63,-1.34,141.9
"2009-12-29 00:29:00",1544022,8.21,179.1,2.589,0.8,3.793,99.45897,-2.079,-0.806,33.71,0,109.4,13.63,-1.33,141.1
"2009-12-29 00:29:30",1544023,8.25,179.6,2.736,0.72,3.736,99.46009,-2.076,-0.823,32.16,0,109.4,13.63,-1.33,141.6
"2009-12-29 00:30:00",1544024,8.41,179.3,4.111,0.426,4.102,99.46263,-2.069,-0.789,33.96,0,109.4,13.63,-1.32,141.3
"2009-12-29 00:30:30",1544025,8.25,179.7,1.539,0.708,3.708,99.46432,-2.065,-0.81,35.07,0,109.4,13.62,-1.32,141.7
"2009-12-29 00:31:00",1544026,8.2,178.8,2.722,0.718,3.668,99.46602,-2.061,-0.798,35.13,0,109.4,13.62,-1.32,140.8
"2009-12-29 00:31:30",1544027,8.19,178,3.408,0.726,3.805,99.4677,-2.056,-0.786,35.49,0,109.4,13.62,-1.31,140.0
"2009-12-29 00:32:00",1544028,8.21,177.6,3.348,0.729,3.907,99.47054,-2.049,-0.79,35.28,0,109.4,13.62,-1.30,139.6
"2009-12-29 00:32:30",1544029,8.33,177.8,3.299,0.697,3.746,99.47789,-2.03,-0.778,33.74,0,109.4,13.62,-1.29,139.8
"2009-12-29 00:33:00",1544030,8.2,178.7,1.811,0.793,3.701,99.48156,-2.021,-0.763,32.17,0,109.4,13.62,-1.28,140.7
"2009-12-29 00:33:30",1544031,8.27,177.8,3.829,0.467,3.875,99.48892,-2.002,-0.776,30.89,0,109.4,13.62,-1.26,139.8
"2009-12-29 00:34:00",1544032,8.16,179,2.572,0.739,3.861,99.49204,-1.994,-0.788,30.4,0,109.4,13.62,-1.25,141.0
"2009-12-29 00:34:30",1544033,8.26,178.9,2.701,0.706,3.804,99.50308,-1.966,-0.776,30.72,0,109.4,13.62,-1.22,140.9
"2009-12-29 00:35:00",1544034,8.28,178.7,2.733,0.725,3.877,99.5079,-1.954,-0.748,30.7,0,109.4,13.62,-1.21,140.7
"2009-12-29 00:35:30",1544035,8.31,178.5,2.922,0.796,3.826,99.50818,-1.953,-0.75,31.84,0,109.4,13.63,-1.21,140.5
"2009-12-29 00:36:00",1544036,8.46,178.5,2.557,0.8,3.956,99.51072,-1.947,-0.737,29.75,0,109.4,13.63,-1.20,140.5
"2009-12-29 00:36:30",1544037,8.6,177.1,2.719,0.702,3.812,99.51043,-1.947,-0.742,29.14,0,109.4,13.63,-1.20,139.1
"2009-12-29 00:37:00",1544038,8.48,176.5,2.813,0.812,3.839,99.51099,-1.946,-0.714,28.76,0,109.4,13.63,-1.20,138.5
"2009-12-29 00:37:30",1544039,8.47,175.6,2.745,0.81,3.848,99.50987,-1.949,-0.734,27.6,0,109.4,13.63,-1.20,137.6
"2009-12-29 00:38:00",1544040,8.44,175.7,2.841,0.637,3.871,99.51043,-1.947,-0.721,26.7,0,109.4,13.63,-1.20,137.7
"2009-12-29 00:38:30",1544041,8.48,176.2,2.436,0.579,3.796,99.51157,-1.945,-0.699,26.43,0,109.3,13.63,-1.20,138.2
"2009-12-29 00:39:00",1544042,8.44,176.4,3.335,0.627,3.829,99.5158,-1.934,-0.69,26.51,0,109.4,13.63,-1.19,138.4
"2009-12-29 00:39:30",1544043,8.52,176,3.296,0.597,3.846,99.5192,-1.925,-0.694,26.5,0,109.4,13.63,-1.18,138.0
"2009-12-29 00:40:00",1544044,8.45,176.4,3.07,0.727,4.02,99.52657,-1.906,-0.69,26.31,0,109.4,13.63,-1.16,138.4
"2009-12-29 00:40:30",1544045,8.48,176.5,1.769,0.715,3.769,99.53477,-1.885,-0.696,26.2,0,109.3,13.63,-1.14,138.5
"2009-12-29 00:41:00",1544046,8.43,176.5,3.412,0.648,3.892,99.53959,-1.873,-0.666,26.02,0,109.4,13.63,-1.13,138.5
"2009-12-29 00:41:30",1544047,8.42,175.3,3.319,0.66,3.775,99.54837,-1.851,-0.678,25.85,0,109.4,13.63,-1.11,137.3
"2009-12-29 00:42:00",1544048,8.37,175,3.186,0.647,3.87,99.5512,-1.844,-0.665,25.31,0,109.4,13.63,-1.10,137.0
"2009-12-29 00:42:30",1544049,8.3,175.8,3.305,0.607,3.73,99.55007,-1.846,-0.648,25.48,0,109.4,13.63,-1.10,137.8
"2009-12-29 00:43:00",1544050,8.15,176.2,1.906,0.796,3.636,99.54838,-1.851,-0.647,25.85,0,109.4,13.63,-1.11,138.2
"2009-12-29 00:43:30",1544051,8.16,175.4,3.39,0.637,3.815,99.55036,-1.846,-0.643,25.89,0,109.4,13.63,-1.10,137.4
"2009-12-29 00:44:00",1544052,7.859,174.9,3.403,0.902,3.608,99.5498,-1.847,-0.672,25.57,0,109.4,13.63,-1.10,136.9
"2009-12-29 00:44:30",1544053,7.607,175.1,4.442,0.996,3.381,99.55177,-1.842,-0.653,25.67,0,109.4,13.63,-1.10,137.1
"2009-12-29 00:45:00",1544054,7.276,174.4,5.695,1.14,2.918,99.55177,-1.842,-0.649,26.37,0,109.4,13.63,-1.10,136.4
"2009-12-29 00:45:30",1544055,7.662,175.6,5.285,1.091,3.423,99.55205,-1.841,-0.671,28.04,0,109.4,13.64,-1.10,137.6
"2009-12-29 00:46:00",1544056,7.385,173.8,5.72,1.181,2.684,99.55261,-1.84,-0.673,28.34,0,109.4,13.64,-1.09,135.8
"2009-12-29 00:46:30",1544057,8.26,176.9,3.368,0.577,4.692,99.55148,-1.843,-0.601,28.21,0,109.4,13.64,-1.10,138.9
"2009-12-29 00:47:00",1544058,8.3,175.1,3.387,0.627,4.685,99.55233,-1.841,-0.596,26.8,0,109.4,13.63,-1.10,137.1
"2009-12-29 00:47:30",1544059,8.22,174.4,3.614,0.545,4.771,99.55374,-1.837,-0.572,25.93,0,109.4,13.63,-1.09,136.4
"2009-12-29 00:48:00",1544060,8.11,174.2,3.24,0.741,4.567,99.55374,-1.837,-0.578,25.67,0,109.4,13.63,-1.09,136.2
"2009-12-29 00:48:30",1544061,8.06,173.8,3.274,0.722,4.38,99.55403,-1.836,-0.588,25.34,0,109.4,13.63,-1.09,135.8
"2009-12-29 00:49:00",1544062,7.283,168.8,5.932,1.113,2.875,99.55431,-1.836,-0.689,24.88,0,109.4,13.63,-1.09,130.8
"2009-12-29 00:49:30",1544063,7.261,168.6,5.63,1.131,3.262,99.55431,-1.836,-0.64,24.05,0,109.4,13.63,-1.09,130.6
"2009-12-29 00:50:00",1544064,7.126,168.2,6.084,1.19,2.919,99.55318,-1.838,-0.684,23.51,0,109.4,13.63,-1.09,130.2
"2009-12-29 00:50:30",1544065,7.586,170.8,5.643,1.029,3.748,99.55318,-1.838,-0.617,23.73,0,109.4,13.63,-1.09,132.8
"2009-12-29 00:51:00",1544066,7.906,173.7,2.79,0.642,4.622,99.55346,-1.838,-0.549,24.89,0,109.4,13.63,-1.09,135.7
"2009-12-29 00:51:30",1544067,7.666,172.8,4.863,0.946,3.817,99.55431,-1.836,-0.626,24.73,0,109.4,13.64,-1.09,134.8
"2009-12-29 00:52:00",1544068,7.278,171.1,5.596,1.126,3.312,99.55403,-1.836,-0.612,25.36,0,109.4,13.64,-1.09,133.1
"2009-12-29 00:52:30",1544069,7.828,173.7,3.899,0.73,4.369,99.55346,-1.838,-0.554,24.94,0,109.4,13.64,-1.09,135.7
"2009-12-29 00:53:00",1544070,7.863,174.4,3.42,0.651,4.43,99.55459,-1.835,-0.567,24.88,0,109.4,13.64,-1.09,136.4
"2009-12-29 00:53:30",1544071,7.871,176.7,1.628,0.748,4.422,99.55318,-1.838,-0.531,25.39,0,109.4,13.64,-1.09,138.7
"2009-12-29 00:54:00",1544072,7.777,175.5,3.825,0.834,4.02,99.55403,-1.836,-0.6,25.78,0,109.4,13.64,-1.09,137.5
"2009-12-29 00:54:30",1544073,7.404,175.2,5.142,1.121,3.435,99.55234,-1.841,-0.567,25.77,0,109.4,13.64,-1.10,137.2
"2009-12-29 00:55:00",1544074,7.474,173.9,5.805,1.106,2.936,99.55261,-1.84,-0.695,26.8,0,109.4,13.64,-1.09,135.9
"2009-12-29 00:55:30",1544075,7.333,175.2,5.981,1.154,3.176,99.55488,-1.834,-0.612,27.31,0,109.4,13.64,-1.09,137.2
"2009-12-29 00:56:00",1544076,8.29,177.4,2.641,0.619,4.81,99.55516,-1.833,-0.564,27.33,0,109.4,13.64,-1.09,139.4
"2009-12-29 00:56:30",1544077,8.11,175,3.312,0.753,4.778,99.55516,-1.833,-0.524,25.88,0,109.4,13.64,-1.09,137.0
"2009-12-29 00:57:00",1544078,8.15,174.8,3.342,0.481,4.637,99.55686,-1.829,-0.55,24.73,0,109.4,13.64,-1.08,136.8
"2009-12-29 00:57:30",1544079,8.03,175.7,3.791,0.613,4.63,99.55544,-1.833,-0.538,24.39,0,109.4,13.64,-1.09,137.7
"2009-12-29 00:58:00",1544080,8.06,176.8,3.251,0.615,4.499,99.558,-1.826,-0.545,24.92,0,109.4,13.64,-1.08,138.8
"2009-12-29 00:58:30",1544081,7.88,177.6,4.172,0.74,4.132,99.56112,-1.818,-0.594,25.69,0,109.4,13.64,-1.07,139.6
"2009-12-29 00:59:00",1544082,6.96,176.3,5.914,1.138,2.857,99.5696,-1.797,-0.577,26.13,0,109.4,13.64,-1.05,138.3
"2009-12-29 00:59:30",1544083,6.393,173.8,5.826,1.147,1.35,99.57329,-1.787,-0.781,26.2,0,109.4,13.64,-1.04,135.8
"2009-12-29 01:00:00",1544084,7.248,178.5,5.203,1.045,3.729,99.58207,-1.765,-0.576,27.13,0,109.4,13.64,-1.02,140.5
"2009-12-29 01:00:30",1544085,7.432,180.7,4.673,0.96,4.65,99.58093,-1.768,-0.537,27.64,0,109.4,13.65,-1.02,142.7
"2009-12-29 01:01:00",1544086,7.695,180.6,4.598,0.832,4.846,99.5798,-1.771,-0.546,28.51,0,109.4,13.65,-1.02,142.6
"2009-12-29 01:01:30",1544087,7.869,180.9,3.807,0.524,5.096,99.57328,-1.787,-0.5,29.1,0,109.4,13.65,-1.04,142.9
"2009-12-29 01:02:00",1544088,7.815,180.7,2.712,0.724,4.592,99.56847,-1.8,-0.508,28.72,0,109.4,13.65,-1.05,142.7
"2009-12-29 01:02:30",1544089,7.758,180.7,3.402,0.741,4.524,99.56451,-1.81,-0.513,28.32,0,109.4,13.65,-1.06,142.7
"2009-12-29 01:03:00",1544090,7.805,183.5,4.322,0.498,4.339,99.56252,-1.815,-0.511,28.59,0,109.4,13.64,-1.07,145.5
"2009-12-29 01:03:30",1544091,7.691,183.6,3.384,0.628,4.12,99.5577,-1.827,-0.515,29.24,0,109.4,13.64,-1.08,145.6
"2009-12-29 01:04:00",1544092,7.756,183.5,2.454,0.47,3.791,99.55544,-1.833,-0.515,29.45,0,109.4,13.64,-1.09,145.5
"2009-12-29 01:04:30",1544093,7.678,184.5,2.518,0.739,3.821,99.55571,-1.832,-0.525,29.86,0,109.4,13.64,-1.09,146.5
"2009-12-29 01:05:00",1544094,7.712,183.7,3.421,0.666,3.694,99.55685,-1.829,-0.527,30.28,0,109.4,13.64,-1.08,145.7
"2009-12-29 01:05:30",1544095,7.609,182.8,3.299,0.656,3.689,99.55656,-1.83,-0.55,30.26,0,109.4,13.64,-1.08,144.8
"2009-12-29 01:06:00",1544096,6.924,181.1,5.433,1.137,2.015,99.55656,-1.83,-0.626,29.92,0,109.4,13.64,-1.08,143.1
"2009-12-29 01:06:30",1544097,6.667,180.4,6.021,1.216,1.241,99.55627,-1.831,-0.734,29.91,0,109.4,13.64,-1.09,142.4
"2009-12-29 01:07:00",1544098,6.399,180.8,6.164,1.165,1.446,99.54494,-1.859,-0.67,30.28,0,109.4,13.64,-1.11,142.8
"2009-12-29 01:07:30",1544099,7.299,185.8,2.639,0.789,4.019,99.5339,-1.888,-0.57,30.8,0,109.4,13.64,-1.14,147.8
"2009-12-29 01:08:00",1544100,7.267,184.5,3.72,0.803,4.465,99.52624,-1.907,-0.572,31.24,0,109.4,13.65,-1.16,146.5
"2009-12-29 01:08:30",1544101,7.582,185.6,4.221,0.483,4.388,99.52312,-1.915,-0.589,31.25,0,109.4,13.65,-1.17,147.6
"2009-12-29 01:09:00",1544102,7.341,183.8,3.832,0.513,4.209,99.52312,-1.915,-0.589,32.11,0,109.4,13.65,-1.17,145.8
"2009-12-29 01:09:30",1544103,6.826,182.3,5.324,0.998,3.235,99.52341,-1.914,-0.678,32.12,0,109.4,13.65,-1.17,144.3
"2009-12-29 01:10:00",1544104,6.876,182.6,5.558,0.975,2.968,99.51292,-1.941,-0.72,31.92,0,109.4,13.65,-1.20,144.6
"2009-12-29 01:10:30",1544105,6.725,180.2,6.107,1.242,2.24,99.49563,-1.985,-0.769,32.44,0,109.4,13.65,-1.24,142.2
"2009-12-29 01:11:00",1544106,6.81,182.2,5.232,1.113,3.292,99.4894,-2.001,-0.704,31.5,0,109.4,13.66,-1.26,144.2
"2009-12-29 01:11:30",1544107,6.447,180.5,5.253,1.022,3.238,99.48968,-2,-0.681,32.24,0,109.4,13.66,-1.26,142.5
"2009-12-29 01:12:00",1544108,6.878,184.6,3.649,0.733,4.228,99.4894,-2.001,-0.668,33.04,0,109.4,13.66,-1.26,146.6
"2009-12-29 01:12:30",1544109,6.928,184.2,3.979,0.651,3.719,99.48429,-2.014,-0.68,33.64,0,109.4,13.66,-1.27,146.2
"2009-12-29 01:13:00",1544110,6.493,183.2,5.628,1.05,3.053,99.46758,-2.057,-0.758,34.06,0,109.4,13.66,-1.31,145.2
"2009-12-29 01:13:30",1544111,6.448,182.8,5.551,1.086,2.214,99.45625,-2.086,-0.847,34.76,0,109.4,13.66,-1.34,144.8
"2009-12-29 01:14:00",1544112,6.739,183.5,5.493,1.179,2.213,99.45596,-2.086,-0.852,34.23,0,109.4,13.66,-1.34,145.5
"2009-12-29 01:14:30",1544113,7.081,185.6,5.039,1.018,2.868,99.4503,-2.101,-0.782,33.91,0,109.4,13.66,-1.36,147.6
"2009-12-29 01:15:00",1544114,7.006,184.7,4.762,0.967,2.989,99.42593,-2.163,-0.795,34.68,0,109.4,13.66,-1.42,146.7
"2009-12-29 01:15:30",1544115,7.249,185.3,4.056,0.935,3.362,99.42197,-2.173,-0.847,35.57,0,109.4,13.66,-1.43,147.3
"2009-12-29 01:16:00",1544116,6.753,183.6,6.394,1.271,2.442,99.42197,-2.173,-0.848,35.61,0,109.4,13.66,-1.43,145.6
"2009-12-29 01:16:30",1544117,6.527,184,5.546,1.038,2.916,99.41601,-2.188,-0.876,36.21,0,109.4,13.66,-1.44,146.0
"2009-12-29 01:17:00",1544118,6.395,183.4,4.989,0.961,2.999,99.39731,-2.236,-0.879,36.91,0,109.4,13.66,-1.49,145.4
"2009-12-29 01:17:30",1544119,7.52,184.1,4.074,0.899,3.518,99.38824,-2.259,-0.949,36.77,0,109.4,13.66,-1.51,146.1
"2009-12-29 01:18:00",1544120,6.954,180.5,6.883,1.242,2.297,99.38795,-2.26,-0.939,35.36,0,109.4,13.66,-1.52,142.5
"2009-12-29 01:18:30",1544121,7.876,185.6,3.568,0.526,4.004,99.37833,-2.284,-0.898,35.2,0,109.4,13.66,-1.54,147.6
"2009-12-29 01:19:00",1544122,6.877,182.7,5.74,1.055,2.984,99.35877,-2.334,-0.977,35.99,0,109.4,13.66,-1.59,144.7
"2009-12-29 01:19:30",1544123,6.53,178.5,5.796,1.085,2.576,99.35396,-2.346,-1.059,36.48,0,109.4,13.66,-1.60,140.5
"2009-12-29 01:20:00",1544124,7.571,184,4.149,0.839,4.108,99.35396,-2.346,-0.944,35.5,0,109.4,13.66,-1.60,146.0
"2009-12-29 01:20:30",1544125,7.929,185.9,1.998,0.749,4.02,99.35396,-2.346,-0.978,33.96,0,109.3,13.66,-1.60,147.9
"2009-12-29 01:21:00",1544126,7.794,185.6,3.414,0.736,3.684,99.35396,-2.346,-0.981,33.56,0,109.4,13.66,-1.60,147.6
"2009-12-29 01:21:30",1544127,7.486,183.6,4.049,0.559,3.579,99.35367,-2.347,-1.001,34.72,0,109.4,13.66,-1.60,145.6
"2009-12-29 01:22:00",1544128,7.431,183.3,3.225,0.753,3.587,99.34772,-2.362,-1.02,34.52,0,109.4,13.66,-1.62,145.3
"2009-12-29 01:22:30",1544129,7.59,184.5,2.596,0.639,3.414,99.33327,-2.399,-1.039,33.08,0,109.3,13.65,-1.66,146.5
"2009-12-29 01:23:00",1544130,7.851,184.3,3.437,0.656,3.422,99.33129,-2.404,-1.032,32.13,0,109.4,13.65,-1.66,146.3
"2009-12-29 01:23:30",1544131,7.107,184.5,2.505,0.754,2.94,99.33129,-2.404,-1.048,32.85,0,109.4,13.65,-1.66,146.5
"2009-12-29 01:24:00",1544132,7.491,184.1,3.878,0.812,2.895,99.33214,-2.402,-1.04,33.83,0,109.4,13.66,-1.66,146.1
"2009-12-29 01:24:30",1544133,6.786,180.1,5.253,1.127,2.103,99.32959,-2.408,-1.176,34.43,0,109.4,13.66,-1.66,142.1
"2009-12-29 01:25:00",1544134,6.126,175.9,5.74,1.087,0.971,99.32874,-2.41,-1.22,32.62,0,109.4,13.66,-1.67,137.9
"2009-12-29 01:25:30",1544135,5.856,175.3,5.608,1.165,0.888,99.32761,-2.413,-1.262,32.13,0,109.4,13.66,-1.67,137.3
"2009-12-29 01:26:00",1544136,7.046,181.7,4.455,0.816,3.635,99.32789,-2.413,-1.077,33.32,0,109.4,13.66,-1.67,143.7
"2009-12-29 01:26:30",1544137,7.531,181.9,3.954,0.586,4.548,99.32647,-2.416,-1.054,34.64,0,109.4,13.67,-1.67,143.9
"2009-12-29 01:27:00",1544138,7.283,181.8,4.63,0.787,4.395,99.32421,-2.422,-1.064,34.63,0,109.4,13.67,-1.68,143.8
"2009-12-29 01:27:30",1544139,7.571,182.5,3.812,0.505,4.247,99.32251,-2.426,-1.065,34.96,0,109.4,13.67,-1.68,144.5
"2009-12-29 01:28:00",1544140,7.106,180.2,4.202,0.724,3.745,99.32081,-2.431,-1.069,35.61,0,109.4,13.67,-1.69,142.2
"2009-12-29 01:28:30",1544141,7.632,181,3.999,0.828,3.736,99.31995,-2.433,-1.088,36.5,0,109.4,13.66,-1.69,143.0
"2009-12-29 01:29:00",1544142,8.25,183.6,4.219,0.507,3.842,99.31995,-2.433,-1.085,36.19,0,109.4,13.66,-1.69,145.6
"2009-12-29 01:29:30",1544143,7.82,181.9,4.01,0.589,3.785,99.31995,-2.433,-1.089,36.14,0,109.4,13.66,-1.69,143.9
"2009-12-29 01:30:00",1544144,7.644,182.1,3.102,0.851,3.402,99.31995,-2.433,-1.101,36.71,0,109.4,13.66,-1.69,144.1
"2009-12-29 01:30:30",1544145,7.446,184,2.943,0.687,3.102,99.31995,-2.433,-1.106,37.16,0,109.4,13.66,-1.69,146.0
"2009-12-29 01:31:00",1544146,6.638,180,3.198,0.743,2.556,99.31995,-2.433,-1.107,37.34,0,109.4,13.66,-1.69,142.0
"2009-12-29 01:31:30",1544147,8.05,182.3,3.906,0.859,3.492,99.31995,-2.433,-1.108,38.5,0,109.4,13.66,-1.69,144.3
"2009-12-29 01:32:00",1544148,7.277,177.5,5.953,1.175,2.788,99.31995,-2.433,-1.101,38.22,0,109.4,13.66,-1.69,139.5
"2009-12-29 01:32:30",1544149,6.338,174.3,4.848,1.094,0.962,99.31995,-2.433,-1.192,38.4,0,109.4,13.66,-1.69,136.3
"2009-12-29 01:33:00",1544150,7.754,176.9,5.066,0.875,2.723,99.32024,-2.432,-1.21,38.29,0,109.4,13.67,-1.69,138.9
"2009-12-29 01:33:30",1544151,7.893,179.6,4.149,0.527,4.055,99.32619,-2.417,-1.082,38.19,0,109.4,13.67,-1.67,141.6
"2009-12-29 01:34:00",1544152,7.734,178,4.667,0.704,4.394,99.33355,-2.398,-1.1,38.18,0,109.4,13.67,-1.65,140.0
"2009-12-29 01:34:30",1544153,7.948,179.7,3.534,0.668,4.656,99.34375,-2.372,-1.099,38.05,0,109.4,13.67,-1.63,141.7
"2009-12-29 01:35:00",1544154,7.857,180.9,3.482,0.64,4.287,99.35254,-2.35,-1.086,37.87,0,109.4,13.67,-1.61,142.9
"2009-12-29 01:35:30",1544155,7.403,180.8,4.563,0.31,3.882,99.35423,-2.345,-1.089,37.98,0,109.4,13.66,-1.60,142.8
"2009-12-29 01:36:00",1544156,7.275,181.5,4.674,0.872,3.426,99.35452,-2.345,-1.077,38.6,0,109.4,13.66,-1.60,143.5
"2009-12-29 01:36:30",1544157,7.188,180.3,6.399,1.115,2.818,99.35396,-2.346,-1.073,38.84,0,109.4,13.66,-1.60,142.3
"2009-12-29 01:37:00",1544158,6.879,174.1,5.234,1.25,1.47,99.35396,-2.346,-1.292,38.35,0,109.4,13.66,-1.60,136.1
"2009-12-29 01:37:30",1544159,7.844,175.8,5.706,1.177,3.511,99.35423,-2.345,-1.142,38.43,0,109.4,13.66,-1.60,137.8
"2009-12-29 01:38:00",1544160,8.21,176.5,3.682,0.742,4.656,99.35452,-2.345,-1.065,40.99,0,109.4,13.66,-1.60,138.5
"2009-12-29 01:38:30",1544161,7.597,175.8,5.62,0.683,4.173,99.35423,-2.345,-1.058,41.04,0,109.4,13.66,-1.60,137.8
"2009-12-29 01:39:00",1544162,6.601,179.2,7.596,0.764,3.609,99.3548,-2.344,-1.049,40.76,0,109.4,13.66,-1.60,141.2
"2009-12-29 01:39:30",1544163,6.995,175.3,7.157,0.74,3.983,99.35648,-2.34,-1.046,40.72,0,109.4,13.66,-1.60,137.3
"2009-12-29 01:40:00",1544164,7.492,178.1,5.282,0.653,3.98,99.35705,-2.338,-1.052,40.22,0,109.4,13.66,-1.59,140.1
"2009-12-29 01:40:30",1544165,7.461,178.4,4.568,0.557,3.512,99.35648,-2.34,-1.057,39.49,0,109.4,13.67,-1.60,140.4
"2009-12-29 01:41:00",1544166,6.845,179.7,6.622,0.917,3.04,99.35308,-2.348,-1.056,39.59,0,109.4,13.67,-1.60,141.7
"2009-12-29 01:41:30",1544167,7.576,182.4,5.368,0.739,3.497,99.34457,-2.37,-1.069,39.17,0,109.4,13.67,-1.63,144.4
"2009-12-29 01:42:00",1544168,6.701,178.9,7.498,1.078,2.987,99.33975,-2.382,-1.102,38.52,0,109.4,13.67,-1.64,140.9
"2009-12-29 01:42:30",1544169,5.769,173.9,7.532,1.131,0.704,99.33153,-2.403,-1.272,38.71,0,109.4,13.67,-1.66,135.9
"2009-12-29 01:43:00",1544170,5.355,168.4,5.672,1.254,0.835,99.32869,-2.411,-1.149,39.5,0,109.4,13.67,-1.67,130.4
"2009-12-29 01:43:30",1544171,6.731,177,7.48,0.818,2.881,99.32868,-2.411,-1.14,40.29,0,109.4,13.67,-1.67,139.0
"2009-12-29 01:44:00",1544172,7.288,178.6,4.746,0.71,4.336,99.33121,-2.404,-1.083,40.21,0,109.4,13.67,-1.66,140.6
"2009-12-29 01:44:30",1544173,7.044,182.6,5.229,0.621,4.332,99.33262,-2.401,-1.095,39.88,0,109.3,13.67,-1.66,144.6
"2009-12-29 01:45:00",1544174,7.037,173.8,5.22,0.803,4.12,99.32609,-2.417,-1.089,39.89,0,109.4,13.67,-1.67,135.8